• In Uzbekistan
  • List of Countries
  • For 7 days
  • Water Temperature
  • Weather Map
  • Weather Widgets
  • user-avatar
    Login

    Hourly Weather Abovyan

    Today, 25 February, Tuesday

    Time Temperature Precipitation Wind Pressure Humidity
    00:00 +4°C° 0 mm 2 mps 666 mmHg 79%
    01:00 +4°C° 0 mm 2 mps 666 mmHg 79%
    02:00 +4°C° 0 mm 2 mps 665 mmHg 80%
    03:00 +3°C° 0 mm 2 mps 665 mmHg 80%
    04:00 +3°C° 0.1 mm 2 mps 665 mmHg 79%
    05:00 +4°C° 0.1 mm 2 mps 664 mmHg 78%
    06:00 +4°C° 0.1 mm 2 mps 664 mmHg 77%
    07:00 +3°C° 0.1 mm 3 mps 664 mmHg 75%
    08:00 +4°C° 0.1 mm 3 mps 664 mmHg 73%
    09:00 +4°C° 0.1 mm 3 mps 664 mmHg 71%
    10:00 +4°C° 1.1 mm 4 mps 664 mmHg 74%
    11:00 +2°C° 1.1 mm 5 mps 664 mmHg 77%
    12:00 +2°C° 1.1 mm 5 mps 664 mmHg 80%
    13:00 +2°C° 0.6 mm 5 mps 664 mmHg 75%
    14:00 +3°C° 0.6 mm 4 mps 665 mmHg 70%
    15:00 +3°C° 0.6 mm 4 mps 665 mmHg 65%
    16:00 0°C° 0 mm 4 mps 666 mmHg 63%
    17:00 0°C° 0 mm 3 mps 667 mmHg 61%
    18:00 -1°C° 0 mm 3 mps 668 mmHg 59%
    19:00 -1°C° 0 mm 3 mps 668 mmHg 56%
    20:00 -2°C° 0 mm 3 mps 669 mmHg 53%
    21:00 -2°C° 0 mm 3 mps 670 mmHg 50%
    22:00 -4°C° 0 mm 3 mps 670 mmHg 49%
    23:00 -4°C° 0 mm 3 mps 670 mmHg 47%

    Tomorrow, 26 February, Wednesday

    Time Temperature Precipitation Wind Pressure Humidity
    00:00 -3°C° 0 mm 2 mps 670 mmHg 46%
    01:00 -3°C° 0 mm 2 mps 670 mmHg 45%
    02:00 -4°C° 0 mm 2 mps 670 mmHg 45%
    03:00 -4°C° 0 mm 2 mps 670 mmHg 44%
    04:00 -4°C° 0 mm 2 mps 670 mmHg 44%
    05:00 -2°C° 0 mm 1 mps 670 mmHg 44%
    06:00 -3°C° 0 mm 1 mps 670 mmHg 44%
    07:00 -1°C° 0 mm 1 mps 671 mmHg 44%
    08:00 0°C° 0 mm 1 mps 671 mmHg 43%
    09:00 +1°C° 0 mm 1 mps 672 mmHg 43%
    10:00 +2°C° 0 mm 1 mps 672 mmHg 43%
    11:00 +3°C° 0 mm 1 mps 672 mmHg 42%
    12:00 +4°C° 0 mm 1 mps 672 mmHg 42%
    13:00 +4°C° 0 mm 1 mps 672 mmHg 42%
    14:00 +5°C° 0 mm 1 mps 672 mmHg 42%
    15:00 +5°C° 0 mm 1 mps 672 mmHg 42%
    16:00 +4°C° 0 mm 1 mps 672 mmHg 44%
    17:00 +2°C° 0 mm 0 mps 672 mmHg 46%
    18:00 +1°C° 0 mm 0 mps 673 mmHg 49%
    19:00 +2°C° 0 mm 1 mps 673 mmHg 47%
    20:00 +2°C° 0 mm 1 mps 673 mmHg 46%
    21:00 +2°C° 0 mm 1 mps 674 mmHg 45%
    22:00 +1°C° 0 mm 1 mps 674 mmHg 46%
    23:00 +1°C° 0 mm 1 mps 674 mmHg 46%

    Day after tomorrow, 27 February, Thursday

    Time Temperature Precipitation Wind Pressure Humidity
    00:00 +1°C° 0 mm 1 mps 674 mmHg 46%
    01:00 0°C° 0 mm 1 mps 674 mmHg 46%
    02:00 0°C° 0 mm 1 mps 674 mmHg 47%
    03:00 0°C° 0 mm 1 mps 674 mmHg 47%
    04:00 0°C° 0 mm 1 mps 674 mmHg 46%
    05:00 0°C° 0 mm 1 mps 674 mmHg 46%
    06:00 0°C° 0 mm 1 mps 673 mmHg 46%
    07:00 +1°C° 0 mm 1 mps 674 mmHg 45%
    08:00 +3°C° 0 mm 1 mps 674 mmHg 44%
    09:00 +4°C° 0 mm 1 mps 674 mmHg 43%
    10:00 +5°C° 0 mm 1 mps 674 mmHg 43%
    11:00 +6°C° 0 mm 1 mps 674 mmHg 43%
    12:00 +7°C° 0 mm 1 mps 674 mmHg 43%
    13:00 +7°C° 0 mm 1 mps 673 mmHg 41%
    14:00 +8°C° 0 mm 1 mps 673 mmHg 40%
    15:00 +8°C° 0 mm 1 mps 672 mmHg 39%
    16:00 +7°C° 0 mm 1 mps 672 mmHg 40%
    17:00 +6°C° 0 mm 1 mps 672 mmHg 40%
    18:00 +5°C° 0 mm 1 mps 672 mmHg 41%
    19:00 +5°C° 0 mm 1 mps 672 mmHg 42%
    20:00 +5°C° 0 mm 1 mps 672 mmHg 42%
    21:00 +4°C° 0 mm 1 mps 671 mmHg 43%
    22:00 +3°C° 0 mm 2 mps 671 mmHg 43%
    23:00 +3°C° 0 mm 2 mps 671 mmHg 44%

    28 February, Friday

    Time Temperature Precipitation Wind Pressure Humidity
    00:00 +2°C° 0 mm 2 mps 670 mmHg 44%
    01:00 +3°C° 0 mm 1 mps 670 mmHg 44%
    02:00 +3°C° 0 mm 1 mps 670 mmHg 45%
    03:00 +3°C° 0 mm 1 mps 669 mmHg 45%
    04:00 +3°C° 0 mm 1 mps 669 mmHg 45%
    05:00 +3°C° 0 mm 1 mps 668 mmHg 46%
    06:00 +3°C° 0 mm 1 mps 668 mmHg 47%
    07:00 +4°C° 0 mm 1 mps 668 mmHg 45%
    08:00 +5°C° 0 mm 1 mps 668 mmHg 44%
    09:00 +6°C° 0 mm 1 mps 669 mmHg 43%
    10:00 +7°C° 0 mm 1 mps 668 mmHg 42%
    11:00 +7°C° 0 mm 2 mps 668 mmHg 42%
    12:00 +8°C° 0 mm 2 mps 668 mmHg 41%
    13:00 +8°C° 0 mm 2 mps 667 mmHg 42%
    14:00 +8°C° 0 mm 2 mps 667 mmHg 42%
    15:00 +9°C° 0 mm 2 mps 667 mmHg 43%
    16:00 +8°C° 0 mm 2 mps 667 mmHg 46%
    17:00 +7°C° 0 mm 2 mps 667 mmHg 49%
    18:00 +7°C° 0 mm 1 mps 667 mmHg 52%
    19:00 +5°C° 0 mm 2 mps 667 mmHg 53%
    20:00 +5°C° 0 mm 2 mps 668 mmHg 54%
    21:00 +5°C° 0 mm 2 mps 668 mmHg 54%
    22:00 +4°C° 0 mm 2 mps 668 mmHg 56%
    23:00 +5°C° 0 mm 1 mps 668 mmHg 57%

    29 February, Saturday

    Time Temperature Precipitation Wind Pressure Humidity
    00:00 +5°C° 0 mm 1 mps 667 mmHg 58%
    01:00 +5°C° 0 mm 1 mps 667 mmHg 60%
    02:00 +5°C° 0 mm 1 mps 667 mmHg 63%
    03:00 +4°C° 0 mm 1 mps 667 mmHg 65%
    04:00 +4°C° 0 mm 1 mps 667 mmHg 67%
    05:00 +4°C° 0 mm 1 mps 667 mmHg 68%
    06:00 +4°C° 0 mm 1 mps 667 mmHg 70%
    07:00 +4°C° 0 mm 2 mps 667 mmHg 67%
    08:00 +5°C° 0 mm 2 mps 667 mmHg 64%
    09:00 +6°C° 0 mm 2 mps 667 mmHg 61%
    10:00 +7°C° 0 mm 2 mps 666 mmHg 58%
    11:00 +8°C° 0 mm 2 mps 666 mmHg 55%
    12:00 +9°C° 0 mm 3 mps 665 mmHg 52%
    13:00 +9°C° 0 mm 3 mps 665 mmHg 51%
    14:00 +10°C° 0 mm 2 mps 664 mmHg 50%
    15:00 +10°C° 0 mm 2 mps 664 mmHg 49%
    16:00 +10°C° 0 mm 3 mps 663 mmHg 52%
    17:00 +9°C° 0 mm 3 mps 663 mmHg 55%
    18:00 +8°C° 0 mm 3 mps 663 mmHg 58%
    19:00 +8°C° 0.3 mm 3 mps 663 mmHg 64%
    20:00 +7°C° 0.3 mm 3 mps 663 mmHg 69%
    21:00 +5°C° 0.3 mm 3 mps 664 mmHg 74%
    22:00 +5°C° 0.3 mm 3 mps 664 mmHg 77%
    23:00 +4°C° 0.3 mm 3 mps 664 mmHg 79%

    1 March, Sunday

    Time Temperature Precipitation Wind Pressure Humidity
    00:00 +4°C° 0.3 mm 3 mps 664 mmHg 81%
    01:00 +3°C° 0.3 mm 3 mps 664 mmHg 77%
    02:00 +1°C° 0.3 mm 4 mps 664 mmHg 74%
    03:00 0°C° 0.3 mm 4 mps 664 mmHg 70%
    04:00 -1°C° 0.2 mm 4 mps 665 mmHg 69%
    05:00 -2°C° 0.2 mm 5 mps 665 mmHg 68%
    06:00 -2°C° 0.2 mm 5 mps 665 mmHg 67%
    07:00 -2°C° 0.1 mm 4 mps 666 mmHg 64%
    08:00 -1°C° 0.1 mm 3 mps 667 mmHg 61%
    09:00 0°C° 0.1 mm 3 mps 667 mmHg 58%
    10:00 -1°C° 0 mm 4 mps 668 mmHg 52%
    11:00 0°C° 0 mm 5 mps 668 mmHg 46%
    12:00 +1°C° 0 mm 6 mps 669 mmHg 41%
    13:00 +1°C° 0.1 mm 6 mps 669 mmHg 41%
    14:00 0°C° 0.1 mm 7 mps 669 mmHg 40%
    15:00 0°C° 0.1 mm 8 mps 669 mmHg 40%
    16:00 -1°C° 0 mm 7 mps 670 mmHg 42%
    17:00 -2°C° 0 mm 6 mps 670 mmHg 43%
    18:00 -2°C° 0 mm 5 mps 671 mmHg 45%
    19:00 -3°C° 0 mm 4 mps 672 mmHg 46%
    20:00 -4°C° 0 mm 3 mps 672 mmHg 47%
    21:00 -4°C° 0 mm 3 mps 673 mmHg 48%
    22:00 -4°C° 0 mm 2 mps 673 mmHg 46%
    23:00 -4°C° 0 mm 2 mps 673 mmHg 44%
    Show more